Atlantic - Newfoundland: Past 24 Hour Conditions

 

Port aux Basques

08:30 PM NDT 28 August 2014
This table is a summary of hourly weather conditions for the past 24 hours.
Date / Time
(NDT)
Wind(knots) Conditions Visibility(km) Pressure(kPa) Air tempC) Relative humidity(%) Dew pointC)
28 August 2014
20:30 E 16 gust 21 Cloudy 15 100.4 16 83 13
19:30 E 15 gust 20 Cloudy 15 100.4 17 81 14
18:30 E 15 Cloudy 15 100.5 17 85 14
17:30 E 17 gust 22 Cloudy 15 100.5 17 85 14
16:30 E 15 gust 21 Cloudy 15 100.5 17 86 15
15:30 E 15 gust 24 Cloudy 15 100.5 17 87 15
14:30 ESE 18 gust 24 Cloudy 15 100.6 17 87 15
13:30 E 19 Cloudy 15 100.6 17 86 15
12:30 E 14 gust 24 Cloudy 15 100.7 18 87 16
11:30 E 15 Cloudy 15 100.7 18 87 16
10:30 E 14 Cloudy 15 100.7 18 88 16
9:30 E 10 Mostly Cloudy 15 100.7 18 93 17
8:30 ENE 4 Sunny 11 100.7 18 98 17
7:30 NNW 3 Mainly Sunny 6 100.7 17 98 17
6:30 NW 5 Mainly Clear 6 100.7 17 97 17
5:30 W 2 Mostly Cloudy 6 100.7 18 98 17
4:30 NW 3 Cloudy 6 100.7 18 96 18
3:30 WNW 5 Cloudy 8 100.8 18 96 18
2:30 W 8 Mostly Cloudy 8 100.8 18 96 18
1:30 W 5 Partly Cloudy 10 100.8 18 96 17
0:30 W 8 Cloudy 11 100.8 19 95 18
27 August 2014
23:30 W 7 Partly Cloudy 10 100.9 19 96 18
22:30 W 6 Partly Cloudy 13 100.8 18 94 17
21:30 W 9 Mainly Clear 15 100.9 18 94 17
20:30 W 6 Partly Cloudy 13 100.8 19 90 17
 
Map of Atlantic - Newfoundland marine weather areas Southwestern Grand Banks - 44138 Banquereau - 44139 Tail of the Bank - 44140 Nickerson Bank - 44251 Northeast Burgeo Bank - 44255 Blanc-Sablon Airport Cap Whittle Chevery Natashquan Airport Heath Point Miscou Island Grand Étang Ingonish Beach North Mountain St.Paul Island J.A. Douglas McCurdy Sydney Airport Charlottetown Airport East Point North Cape Argentia Bonavista Burgeo Cape Race Corner Brook Daniel's Harbour Englee Ferolle Point La Scie Port aux Basques Rocky Harbour Sagona Island St. Anthony Airport St. John's Int'l Airport St. Lawrence Stephenville Airport Twillingate Winterland Wreckhouse Cartwright Airport Mary's Harbour Grates Cove Pool's Island Marticot Island Long Pond Îles de la Madeleine Airport
Legend: buoyBuoy land stationLand Station